Home   Weather   Edinburgh   Past weeks

Flag for United Kingdom Past Weather in Edinburgh, Scotland, United Kingdom — Yesterday and Last 2 Weeks

Now
50 °F

Cool.


Feels Like: 47 °F
Forecast: 46 / 55 °F
Wind: 8 mph from East

Location: Edinburgh Airport

Current Time: Apr 30, 2017 at 2:39:44 am

Latest Report: Apr 30, 2017 at 1:50 am


Visibility: N/A

Pressure: 29.80 "Hg

Humidity: 62%

Dew Point: 37 °F

Location of EdinburghLocation

Past Weather in Edinburgh — Graph

°F

Edinburgh Temperature Yesterday

Maximum temperature yesterday: 54 °F (at 12:50 pm)
Minimum temperature yesterday: 46 °F (at 12:20 am)
Average temperature yesterday: 50 °F

High & Low Weather Summary for the Past Weeks

 TemperatureHumidityPressure
High59 °F (Apr 19, 5:20 pm)100% (Apr 17, 5:20 am)30.54 "Hg (Apr 17, 5:20 am)
Low25 °F (Apr 18, 4:50 am)37% (Apr 24, 7:20 pm)29.80 "Hg (Apr 30, 12:50 am)
Average46 °F68%30.18 "Hg
* Reported Apr 15 1:20 am — Apr 30 1:20 am, Edinburgh, Weather by CustomWeather, © 2017

Note: Actual official high and low records may vary slightly from our data, if they occured in-between our weather recording intervals... More about our weather records

Advertising

Edinburgh Weather History for the Previous 24 Hours

Scroll right to see more
 ConditionsComfort  
Time TempWeatherWind HumidityBarometerVisibility
1:20 am
Sun, Apr 30
50 °FClear.9 mph67%29.80 "Hg10 mi
12:50 am48 °FClear.6 mph76%29.80 "Hg10 mi
12:20 am50 °FClear.8 mph71%29.83 "Hg10 mi
11:50 pm
Sat, Apr 29
50 °FClear.9 mph71%29.83 "Hg10 mi
11:20 pm50 °FClear.8 mph76%29.83 "Hg10 mi
10:50 pm50 °FClear.7 mph76%29.83 "Hg10 mi
10:20 pm50 °FClear.7 mph76%29.83 "Hg10 mi
9:50 pm50 °FClear.8 mph76%29.83 "Hg10 mi
9:20 pm50 °FClear.7 mph71%29.83 "Hg10 mi
8:50 pm50 °FPassing clouds.6 mph71%29.83 "HgN/A
8:20 pm50 °FPassing clouds.3 mph67%29.83 "HgN/A
7:50 pm52 °FSunny.3 mph62%29.83 "Hg10 mi
7:20 pm54 °FPassing clouds.5 mph58%29.83 "HgN/A
6:50 pm54 °FSunny.8 mph54%29.83 "Hg10 mi
6:20 pm54 °FPassing clouds.7 mph54%29.83 "HgN/A
5:50 pm54 °FPassing clouds.9 mph54%29.83 "HgN/A
5:20 pm54 °FPassing clouds.8 mph54%29.86 "HgN/A
4:50 pm54 °FScattered clouds.8 mph54%29.86 "HgN/A
4:20 pm54 °FScattered clouds.9 mph51%29.86 "HgN/A
3:50 pm54 °FPassing clouds.10 mph51%29.86 "HgN/A
3:20 pm54 °FScattered clouds.10 mph51%29.86 "HgN/A
2:50 pm54 °FOvercast.12 mph51%29.86 "HgN/A
2:20 pm54 °FPartly sunny.12 mph51%29.86 "HgN/A
1:50 pm54 °FPartly sunny.13 mph51%29.86 "HgN/A
1:20 pm54 °FPartly sunny.13 mph54%29.86 "HgN/A
12:50 pm54 °FBroken clouds.17 mph54%29.86 "HgN/A
12:20 pm52 °FBroken clouds.10 mph58%29.89 "HgN/A
11:50 am52 °FPartly sunny.12 mph58%29.89 "HgN/A
11:20 am50 °FPartly sunny.12 mph62%29.89 "HgN/A
10:50 am50 °FPartly sunny.14 mph62%29.89 "HgN/A
10:20 am50 °FPartly sunny.13 mph67%29.89 "HgN/A
9:50 am48 °FPartly sunny.13 mph71%29.89 "HgN/A
9:20 am48 °FPartly sunny.12 mph71%29.89 "HgN/A
8:50 am48 °FPassing clouds.9 mph66%29.89 "HgN/A
8:20 am46 °FPassing clouds.7 mph71%29.89 "HgN/A
7:50 am46 °FPartly sunny.8 mph71%29.89 "HgN/A
7:20 am46 °FPartly sunny.10 mph71%29.89 "HgN/A
6:50 am46 °FPartly sunny.7 mph71%29.89 "HgN/A
6:20 am46 °FOvercast.7 mph71%29.89 "HgN/A
5:50 am46 °FPartly sunny.7 mph71%29.89 "HgN/A
5:20 am46 °FPassing clouds.8 mph71%29.89 "HgN/A
4:50 am46 °FPassing clouds.8 mph71%29.89 "HgN/A
4:20 am46 °FPassing clouds.8 mph71%29.89 "HgN/A
3:50 am46 °FPassing clouds.9 mph71%29.92 "HgN/A
3:20 am46 °FClear.7 mph71%29.92 "Hg10 mi
2:50 am46 °FClear.7 mph71%29.92 "Hg10 mi
2:20 am46 °FClear.8 mph76%29.92 "Hg10 mi
Weather by CustomWeather, © 2017

See weather overviewHow to use our weather pages